DW0457 Little Compton RI US current weather conditions

sailwx.info

Wind from 290 at 0 knots gusting 6

Air temperature 2.2° C
Dewpoint -0.5° C

Last reported at 2020-Jan-27 12:02 UTC.
Time now 2020-Jan-27 12:24 UTC

Location: N 41°32' W 071°11'.
View on Google Maps.

See reports from other nearby stations

  
Tides and Currents Weather Stations Pressure Air Temp Water Temp Dewpoint Dewpoint Depression Visibility Wind Speed Wind Dir Waves Ship Positions
date/time (UTC)wind fromknots sea level pressurealtimeterstation pressurevisibilityair tempwater tempwave heightnotes
2020-Jan-27 12:02 290 0 gusting 6 2.2
2020-Jan-27 11:32 258 1 gusting 6 2.2
2020-Jan-27 11:02 245 1 gusting 8 2.2
2020-Jan-27 10:31 226 0 gusting 8 1.7
2020-Jan-27 09:32 237 0 gusting 6 2.2
2020-Jan-27 09:01 234 1 gusting 6 2.2
2020-Jan-27 08:31 240 2.2
2020-Jan-27 08:01 236 2.2
2020-Jan-27 07:31 233 2.8
2020-Jan-27 07:01 228 2.8
2020-Jan-27 06:31 241 0 gusting 2 2.8
2020-Jan-27 06:01 231 2.8
2020-Jan-27 05:31 232 3.3
2020-Jan-27 05:02 291 3.9
2020-Jan-27 04:31 268 0 gusting 6 3.9
2020-Jan-27 04:01 257 3 gusting 6 3.9
2020-Jan-27 03:31 259 0 gusting 5 3.3
2020-Jan-27 03:01 239 2 gusting 8 3.9
2020-Jan-27 02:31 285 3 gusting 6 3.9
2020-Jan-27 02:01 247 1 gusting 6 3.9
2020-Jan-27 01:31 294 2 gusting 7 3.9
2020-Jan-27 01:01 231 3.9
2020-Jan-27 00:31 248 3.3
2020-Jan-27 00:01 245 2.8
2020-Jan-26 23:31 290 3.9
2020-Jan-26 23:02 248 5.0
2020-Jan-26 22:31 307 0 gusting 5 5.0
2020-Jan-26 22:01 238 0 gusting 5 6.1
2020-Jan-26 21:31 285 2 gusting 7 6.7
2020-Jan-26 21:02 219 1 gusting 8 6.1
2020-Jan-26 20:31 217 2 gusting 12 6.1
2020-Jan-26 20:02 252 7 gusting 13 6.7
2020-Jan-26 19:31 224 5 gusting 12 5.6
2020-Jan-26 19:02 238 2 gusting 12 6.1
2020-Jan-26 18:31 288 2 gusting 13 6.1
2020-Jan-26 18:02 220 6 gusting 15 6.7
2020-Jan-26 17:31 259 10 gusting 13 7.2
2020-Jan-26 17:02 233 2 gusting 8 8.9
2020-Jan-26 16:31 296 5 gusting 7 8.3
2020-Jan-26 16:02 316 3 gusting 7 7.8
2020-Jan-26 15:32 301 3 gusting 9 6.7
2020-Jan-26 15:01 283 8 gusting 9 6.1
2020-Jan-26 14:31 328 1 gusting 7 5.6
2020-Jan-26 14:02 270 3 gusting 9 5.0
2020-Jan-26 13:31 302 6 gusting 7 4.4
2020-Jan-26 13:01 302 0 gusting 9 3.9
2020-Jan-26 12:31 274 5 gusting 9 3.9
2020-Jan-26 12:01 307 2 gusting 6 4.4
2020-Jan-26 11:31 309 1 gusting 6 5.0
2020-Jan-26 11:02 271 3 gusting 5 5.6
2020-Jan-26 10:32 291 5.6
2020-Jan-26 09:31 214 0 gusting 6 5.6
2020-Jan-26 09:02 238 2 gusting 8 5.6
2020-Jan-26 08:32 231 6 gusting 8 5.6
2020-Jan-26 08:02 220 4 gusting 7 6.1
2020-Jan-26 07:32 254 2 gusting 6 6.1
2020-Jan-26 06:02 244 1 gusting 7 7.2
2020-Jan-26 05:02 215 1 gusting 4 7.8
2020-Jan-26 04:32 203 1 gusting 7 7.8
2020-Jan-26 04:02 153 3 gusting 10 8.3
2020-Jan-26 03:32 228 3 gusting 17 9.4
2020-Jan-26 03:02 158 6 gusting 19 10.0
2020-Jan-26 02:32 203 12 gusting 17 10.0
2020-Jan-26 02:02 148 11 gusting 19 8.3
2020-Jan-26 01:32 101 14 gusting 25 8.9
2020-Jan-26 01:02 138 11 gusting 24 8.3
2020-Jan-26 00:32 159 11 gusting 23 8.3
2020-Jan-26 00:02 129 6 gusting 20 7.8
2020-Jan-25 23:32 084 13 gusting 20 6.7
2020-Jan-25 23:02 084 7 gusting 22 6.7
2020-Jan-25 22:32 086 6 gusting 17 6.7
2020-Jan-25 22:02 092 15 gusting 19 6.7
2020-Jan-25 21:32 106 7 gusting 24 6.7
2020-Jan-25 21:02 077 11 gusting 20 7.2
2020-Jan-25 20:32 094 15 gusting 18 7.2
2020-Jan-25 20:02 044 11 gusting 19 7.8
2020-Jan-25 19:32 125 11 gusting 19 7.8
2020-Jan-25 19:02 103 7 gusting 20 7.8
2020-Jan-25 18:32 100 9 gusting 18 7.8
2020-Jan-25 18:02 110 10 gusting 19 7.8
2020-Jan-25 17:32 089 12 gusting 14 7.8
2020-Jan-25 17:02 118 2 gusting 19 7.2
2020-Jan-25 16:32 077 8 gusting 13 7.2
2020-Jan-25 16:02 047 8 gusting 19 6.7
2020-Jan-25 15:32 132 6 gusting 17 6.7
2020-Jan-25 15:02 082 1 gusting 19 6.1
2020-Jan-25 14:32 060 5 gusting 13 5.6
2020-Jan-25 14:02 121 0 gusting 11 5.0
2020-Jan-25 13:32 073 3 gusting 13 4.4
2020-Jan-25 13:02 087 9 gusting 14 4.4
2020-Jan-25 12:32 042 4 gusting 11 3.9
2020-Jan-25 12:02 110 1 gusting 12 3.3